DW6005 Murcia ES current weather conditions

sailwx.info

Wind from 188

Air temperature 14.4° C
Dewpoint 10.8° C

Last reported at 2018-Nov-22 11:02 UTC.
Time now 2018-Nov-22 11:18 UTC

Location: N 38°03' W 001°06'.
View on Google Maps.

See reports from other nearby stations

  
Tides and Currents Weather Stations Pressure Air Temp Water Temp Dewpoint Dewpoint Depression Visibility Wind Speed Wind Dir Waves Ship Positions
date/time (UTC)wind fromknots sea level pressurealtimeterstation pressurevisibilityair tempwater tempwave heightnotes
2018-Nov-22 11:02 188 14.4
2018-Nov-22 10:47 267 13.9
2018-Nov-22 10:31 217 13.3
2018-Nov-22 10:16 202 13.3
2018-Nov-22 10:01 202 13.3
2018-Nov-22 09:46 202 12.8
2018-Nov-22 09:31 186 12.8
2018-Nov-22 09:16 213 12.8
2018-Nov-22 09:01 213 12.8
2018-Nov-22 08:46 244 12.2
2018-Nov-22 08:31 244 12.2
2018-Nov-22 08:16 219 11.7
2018-Nov-22 08:00 232 11.7
2018-Nov-22 07:45 229 11.7
2018-Nov-22 07:30 247 11.7
2018-Nov-22 07:15 247 11.7
2018-Nov-22 07:00 245 11.1
2018-Nov-22 06:45 270 2 gusting 6 11.1
2018-Nov-22 06:30 223 11.1
2018-Nov-22 06:15 220 11.1
2018-Nov-22 06:00 219 11.1
2018-Nov-22 05:45 190 11.1
2018-Nov-22 05:30 251 11.1
2018-Nov-22 05:15 244 10.6
2018-Nov-22 05:00 244 10.6
2018-Nov-22 04:45 244 10.6
2018-Nov-22 04:30 244 10.6
2018-Nov-22 04:15 244 10.0
2018-Nov-22 04:00 243 0 gusting 2 10.6
2018-Nov-22 03:45 242 10.6
2018-Nov-22 03:30 242 10.6
2018-Nov-22 03:15 241 10.6
2018-Nov-22 03:00 240 10.6
2018-Nov-22 02:46 240 10.6
2018-Nov-22 02:31 259 10.6
2018-Nov-22 02:16 226 10.6
2018-Nov-22 02:02 226 10.6
2018-Nov-22 01:46 202 11.1
2018-Nov-22 01:31 202 11.1
2018-Nov-22 01:16 202 10.6
2018-Nov-22 01:01 202 11.1
2018-Nov-22 00:46 202 11.1
2018-Nov-22 00:31 202 11.1
2018-Nov-22 00:16 202 11.1
2018-Nov-22 00:00 202 11.1
2018-Nov-21 23:45 202 10.6
2018-Nov-21 23:30 202 10.6
2018-Nov-21 23:15 202 10.6
2018-Nov-21 23:00 202 11.1
2018-Nov-21 22:45 202 11.1
2018-Nov-21 22:30 244 11.1
2018-Nov-21 22:15 244 11.1
2018-Nov-21 22:00 243 11.1
2018-Nov-21 21:45 017 11.1
2018-Nov-21 21:30 017 11.1
2018-Nov-21 21:15 017 11.7
2018-Nov-21 21:00 017 11.7
2018-Nov-21 20:45 017 12.2
2018-Nov-21 20:30 017 12.2
2018-Nov-21 20:15 017 12.2
2018-Nov-21 20:00 017 12.2
2018-Nov-21 19:45 017 12.8
2018-Nov-21 19:30 017 13.3
2018-Nov-21 19:15 017 13.9
2018-Nov-21 19:02 017 13.9
2018-Nov-21 18:46 017 13.9
2018-Nov-21 18:31 017 13.9
2018-Nov-21 18:16 017 14.4
2018-Nov-21 18:01 017 14.4
2018-Nov-21 17:47 017 14.4
2018-Nov-21 17:31 017 15.0
2018-Nov-21 17:01 017 15.0
2018-Nov-21 16:46 029 15.6
2018-Nov-21 16:30 087 15.6
2018-Nov-21 16:16 087 16.1
2018-Nov-21 16:01 087 16.1
2018-Nov-21 15:46 087 16.1
2018-Nov-21 15:32 086 16.1
2018-Nov-21 15:16 086 16.1
2018-Nov-21 15:00 086 15.6
2018-Nov-21 14:46 086 15.6
2018-Nov-21 14:31 086 15.6
2018-Nov-21 14:16 087 15.0
2018-Nov-21 14:01 086 15.0
2018-Nov-21 13:46 086 15.0
2018-Nov-21 13:30 086 15.6
2018-Nov-21 13:15 086 15.6
2018-Nov-21 13:00 227 15.6
2018-Nov-21 12:46 227 15.0
2018-Nov-21 12:30 227 14.4
2018-Nov-21 12:15 227 14.4
2018-Nov-21 12:00 227 13.9
2018-Nov-21 11:45 227 13.9
2018-Nov-21 11:30 227 13.3
2018-Nov-21 11:15 227 13.3
2018-Nov-21 11:00 227 12.8
2018-Nov-21 10:45 227 12.8
2018-Nov-21 10:30 227 12.8
2018-Nov-21 10:15 227 12.2
2018-Nov-21 10:00 227 12.2
2018-Nov-21 09:45 227 12.2
2018-Nov-21 09:30 227 12.2
2018-Nov-21 09:15 227 12.2
2018-Nov-21 09:00 227 12.2
2018-Nov-21 08:45 227 0 gusting 1 11.7
2018-Nov-21 08:31 227 12.2
2018-Nov-21 08:17 227 12.2
2018-Nov-21 08:01 249 11.7
2018-Nov-21 07:46 249 11.7
2018-Nov-21 07:32 249 11.7
2018-Nov-21 07:16 249 11.7
2018-Nov-21 07:01 249 11.1
2018-Nov-21 06:46 249 11.1
2018-Nov-21 06:31 248 11.1
2018-Nov-21 06:16 248 11.7
2018-Nov-21 06:01 248 11.7
2018-Nov-21 05:46 248 11.7
2018-Nov-21 05:30 247 11.7
2018-Nov-21 05:16 246 11.7
2018-Nov-21 05:01 246 11.7
2018-Nov-21 04:46 240 11.1
2018-Nov-21 04:31 243 11.1
2018-Nov-21 04:15 242 11.1
2018-Nov-21 04:00 243 11.7
2018-Nov-21 03:45 243 11.7
2018-Nov-21 03:30 243 12.2
2018-Nov-21 03:15 242 12.2
2018-Nov-21 03:00 242 12.2
2018-Nov-21 02:45 242 12.8
2018-Nov-21 02:30 257 12.8
2018-Nov-21 02:15 251 2 gusting 6 12.8
2018-Nov-21 02:00 256 0 gusting 3 12.2
2018-Nov-21 01:45 248 0 gusting 5 12.2
2018-Nov-21 01:30 253 12.2
2018-Nov-21 01:15 242 0 gusting 5 12.8
2018-Nov-21 01:00 266 12.2
2018-Nov-21 00:46 267 12.2
2018-Nov-21 00:31 266 11.7
2018-Nov-21 00:16 261 12.2
2018-Nov-21 00:02 254 1 gusting 3 12.2
2018-Nov-20 23:46 235 11.7
2018-Nov-20 23:31 264 11.7
2018-Nov-20 23:17 266 11.7
2018-Nov-20 23:01 266 11.7
2018-Nov-20 22:31 266 12.2
2018-Nov-20 22:16 261 12.2
2018-Nov-20 22:01 281 12.2
2018-Nov-20 21:46 259 12.8
2018-Nov-20 21:31 250 12.8
2018-Nov-20 21:16 257 1 gusting 6 13.3
2018-Nov-20 21:01 257 13.3
2018-Nov-20 20:46 231 13.3
2018-Nov-20 20:30 230 13.9
2018-Nov-20 20:15 261 1 gusting 7 15.0
2018-Nov-20 20:00 258 2 gusting 6 14.4
2018-Nov-20 19:45 273 13.9
2018-Nov-20 19:30 263 13.9
2018-Nov-20 19:15 253 13.3
2018-Nov-20 19:00 261 1 gusting 6 13.3
2018-Nov-20 18:45 272 1 gusting 6 13.9
2018-Nov-20 18:30 252 1 gusting 5 13.3
2018-Nov-20 18:15 167 13.3
2018-Nov-20 18:00 268 13.9
2018-Nov-20 17:45 268 0 gusting 5 14.4
2018-Nov-20 17:00 257 15.6
2018-Nov-20 16:47 257 16.1
2018-Nov-20 16:31 257 16.7
2018-Nov-20 16:02 259 17.2
2018-Nov-20 15:47 228 17.2
2018-Nov-20 15:31 182 17.8
2018-Nov-20 15:17 216 0 gusting 7 17.8
2018-Nov-20 15:01 287 0 gusting 6 17.8
2018-Nov-20 14:46 101 17.8
2018-Nov-20 14:31 101 17.2
2018-Nov-20 14:16 101 16.7
2018-Nov-20 14:01 101 16.7
2018-Nov-20 13:46 101 16.7
2018-Nov-20 13:31 109 16.1
2018-Nov-20 13:16 239 16.1
2018-Nov-20 13:01 239 15.6
2018-Nov-20 12:46 239 15.0
2018-Nov-20 12:31 239 15.0
2018-Nov-20 12:16 239 15.0
2018-Nov-20 12:00 239 15.0
2018-Nov-20 11:45 239 15.0
2018-Nov-20 11:30 274 15.0
2018-Nov-20 11:15 264 15.0
2018-Nov-20 11:00 259 15.0